EIN19T EGPH-EIDW

Flight info

Callsign EIN19T
Flight time 0h 49m
Altitude 22000
Route GOSAM P600 TRN/N0412F240 P600 BLACA P620 NIMAT NIMAT3R
Aircraft A320/M-SDE3FGHIRWY/LB1

Departure

Time 2026-04-20 19:14
Airport Edinburgh Airport (EGPH)

Arrival

Time 2026-04-20 20:03
Airport Dublin Airport (EIDW)
Time Latitude Longitude Altitude Speed Heading
2026-04-20 18:53 55.94782 -3.36887 106 ft 0 kts 268°
2026-04-20 19:06 55.94782 -3.36885 106 ft 2 kts 268°
2026-04-20 19:06 55.94782 -3.36840 105 ft 4 kts 274°
2026-04-20 19:06 55.94777 -3.36794 102 ft 4 kts 298°
2026-04-20 19:06 55.94761 -3.36762 105 ft 3 kts 339°
2026-04-20 19:07 55.94759 -3.36760 105 ft 0 kts 340°
2026-04-20 19:08 55.94868 -3.36782 105 ft 11 kts 349°
2026-04-20 19:08 55.94922 -3.36860 105 ft 11 kts 288°
2026-04-20 19:09 55.94889 -3.37002 103 ft 13 kts 238°
2026-04-20 19:09 55.94846 -3.37129 105 ft 11 kts 239°
2026-04-20 19:09 55.94796 -3.37278 106 ft 14 kts 239°
2026-04-20 19:09 55.94755 -3.37398 109 ft 10 kts 239°
2026-04-20 19:10 55.94712 -3.37525 110 ft 14 kts 238°
2026-04-20 19:10 55.94668 -3.37653 113 ft 10 kts 238°
2026-04-20 19:10 55.94629 -3.37767 113 ft 12 kts 239°
2026-04-20 19:10 55.94581 -3.37912 112 ft 14 kts 238°
2026-04-20 19:11 55.94534 -3.38048 112 ft 13 kts 239°
2026-04-20 19:11 55.94488 -3.38186 110 ft 13 kts 238°
2026-04-20 19:11 55.94447 -3.38304 113 ft 9 kts 238°
2026-04-20 19:11 55.94409 -3.38417 113 ft 11 kts 239°
2026-04-20 19:12 55.94370 -3.38533 114 ft 14 kts 239°
2026-04-20 19:12 55.94328 -3.38657 118 ft 10 kts 239°
2026-04-20 19:12 55.94289 -3.38771 117 ft 11 kts 242°
2026-04-20 19:12 55.94300 -3.38875 117 ft 10 kts 313°
2026-04-20 19:13 55.94321 -3.38901 118 ft 0 kts 329°
2026-04-20 19:13 55.94342 -3.38924 119 ft 8 kts 329°
2026-04-20 19:13 55.94405 -3.38957 116 ft 10 kts 16°
2026-04-20 19:13 55.94475 -3.38787 116 ft 33 kts 59°
2026-04-20 19:14 55.94729 -3.38048 115 ft 103 kts 58°
2026-04-20 19:14 55.95188 -3.36703 273 ft 137 kts 59°
2026-04-20 19:14 55.95725 -3.35375 1024 ft 127 kts 49°
2026-04-20 19:14 55.96324 -3.34202 1490 ft 134 kts 50°
2026-04-20 19:15 55.97041 -3.32913 1726 ft 160 kts 48°
2026-04-20 19:15 55.97918 -3.31399 1949 ft 188 kts 46°
2026-04-20 19:15 55.98932 -3.29688 2345 ft 212 kts 45°
2026-04-20 19:15 56.00235 -3.28182 2758 ft 241 kts 17°
2026-04-20 19:16 56.01949 -3.28395 3458 ft 259 kts 338°
2026-04-20 19:16 56.03317 -3.30466 4328 ft 270 kts 303°
2026-04-20 19:16 56.03827 -3.33698 5221 ft 278 kts 269°
2026-04-20 19:16 56.03529 -3.37160 5818 ft 281 kts 255°
2026-04-20 19:17 56.02920 -3.40429 5978 ft 280 kts 249°
2026-04-20 19:17 56.02230 -3.43659 6010 ft 278 kts 248°
2026-04-20 19:17 56.01563 -3.46919 6013 ft 280 kts 250°
2026-04-20 19:17 56.00957 -3.50222 6010 ft 281 kts 252°
2026-04-20 19:18 56.00402 -3.53580 6012 ft 281 kts 253°
2026-04-20 19:18 55.99887 -3.56936 6011 ft 280 kts 254°
2026-04-20 19:18 55.99397 -3.60295 6012 ft 279 kts 255°
2026-04-20 19:18 55.98916 -3.63681 6256 ft 282 kts 255°
2026-04-20 19:19 55.98436 -3.67078 7186 ft 283 kts 255°
2026-04-20 19:19 55.97951 -3.70499 8069 ft 286 kts 254°
2026-04-20 19:19 55.97453 -3.73972 8902 ft 291 kts 254°
2026-04-20 19:19 55.96947 -3.77473 9808 ft 292 kts 253°
2026-04-20 19:20 55.96437 -3.80999 10595 ft 297 kts 254°
2026-04-20 19:20 55.95899 -3.84706 10885 ft 320 kts 254°
2026-04-20 19:20 55.95318 -3.88691 11080 ft 343 kts 254°
2026-04-20 19:20 55.94701 -3.92915 11381 ft 361 kts 253°
2026-04-20 19:21 55.94004 -3.97373 11519 ft 382 kts 248°
2026-04-20 19:21 55.92721 -4.01556 11886 ft 389 kts 231°
2026-04-20 19:21 55.90770 -4.04947 12275 ft 396 kts 214°
2026-04-20 19:21 55.88515 -4.07823 12842 ft 400 kts 213°
2026-04-20 19:22 55.86239 -4.10708 13448 ft 404 kts 213°
2026-04-20 19:22 55.83929 -4.13633 14052 ft 408 kts 213°
2026-04-20 19:22 55.81605 -4.16573 14589 ft 412 kts 213°
2026-04-20 19:22 55.79259 -4.19534 15112 ft 415 kts 213°
2026-04-20 19:23 55.76921 -4.22480 15619 ft 417 kts 213°
2026-04-20 19:23 55.74541 -4.25457 16121 ft 420 kts 213°
2026-04-20 19:23 55.72140 -4.28440 16615 ft 423 kts 212°
2026-04-20 19:23 55.69718 -4.31435 17108 ft 425 kts 213°
2026-04-20 19:24 55.67285 -4.34441 17584 ft 427 kts 213°
2026-04-20 19:24 55.64839 -4.37457 18039 ft 430 kts 213°
2026-04-20 19:24 55.62375 -4.40489 18479 ft 432 kts 213°
2026-04-20 19:24 55.59901 -4.43537 18876 ft 434 kts 213°
2026-04-20 19:25 55.57424 -4.46587 19465 ft 428 kts 213°
2026-04-20 19:25 55.55032 -4.49531 20689 ft 410 kts 213°
2026-04-20 19:25 55.52712 -4.52383 21578 ft 404 kts 213°
2026-04-20 19:25 55.50407 -4.55207 22146 ft 404 kts 212°
2026-04-20 19:26 55.48088 -4.58043 22328 ft 406 kts 213°
2026-04-20 19:26 55.45731 -4.60912 22358 ft 419 kts 213°
2026-04-20 19:26 55.43312 -4.63853 22352 ft 424 kts 213°
2026-04-20 19:26 55.40883 -4.66803 22356 ft 422 kts 214°
2026-04-20 19:27 55.38466 -4.69743 22342 ft 422 kts 214°
2026-04-20 19:27 55.36078 -4.72642 22343 ft 422 kts 214°
2026-04-20 19:27 55.33660 -4.75573 22342 ft 422 kts 213°
2026-04-20 19:27 55.31217 -4.78424 22341 ft 422 kts 210°
2026-04-20 19:28 55.28610 -4.80801 22341 ft 422 kts 206°
2026-04-20 19:28 55.25979 -4.83110 22336 ft 421 kts 206°
2026-04-20 19:28 55.23363 -4.85407 22330 ft 421 kts 206°
2026-04-20 19:28 55.20746 -4.87704 22327 ft 421 kts 206°
2026-04-20 19:29 55.18121 -4.90004 22331 ft 421 kts 206°
2026-04-20 19:29 55.15502 -4.92293 22316 ft 421 kts 207°
2026-04-20 19:29 55.12880 -4.94585 22331 ft 422 kts 208°
2026-04-20 19:29 55.10258 -4.96876 22329 ft 422 kts 208°
2026-04-20 19:30 55.07631 -4.99170 22325 ft 422 kts 208°
2026-04-20 19:30 55.05005 -5.01458 22324 ft 422 kts 208°
2026-04-20 19:30 55.02380 -5.03742 22325 ft 422 kts 207°
2026-04-20 19:30 54.99744 -5.06028 22324 ft 422 kts 207°
2026-04-20 19:31 54.97113 -5.08306 22329 ft 422 kts 207°
2026-04-20 19:31 54.94482 -5.10579 22327 ft 422 kts 207°
2026-04-20 19:31 54.91851 -5.12850 22326 ft 422 kts 207°
2026-04-20 19:31 54.89196 -5.15047 22310 ft 423 kts 204°
2026-04-20 19:32 54.86380 -5.16628 22309 ft 426 kts 195°
2026-04-20 19:32 54.83485 -5.17704 22308 ft 426 kts 194°
2026-04-20 19:32 54.80581 -5.18764 22309 ft 426 kts 194°
2026-04-20 19:32 54.77671 -5.19828 22311 ft 427 kts 194°
2026-04-20 19:33 54.74807 -5.20878 22319 ft 427 kts 194°
2026-04-20 19:33 54.71901 -5.21943 22317 ft 427 kts 194°
2026-04-20 19:33 54.68998 -5.23005 22319 ft 427 kts 194°
2026-04-20 19:33 54.66092 -5.24068 22321 ft 427 kts 194°
2026-04-20 19:34 54.63182 -5.25129 22303 ft 427 kts 194°
2026-04-20 19:34 54.60273 -5.26186 22298 ft 428 kts 194°
2026-04-20 19:34 54.57367 -5.27242 22303 ft 428 kts 194°
2026-04-20 19:34 54.54448 -5.28303 22305 ft 429 kts 194°
2026-04-20 19:35 54.51529 -5.29365 22301 ft 429 kts 194°
2026-04-20 19:35 54.48670 -5.30757 22299 ft 427 kts 202°
2026-04-20 19:35 54.45970 -5.32842 22306 ft 425 kts 208°
2026-04-20 19:35 54.43319 -5.35107 22308 ft 425 kts 208°
2026-04-20 19:36 54.40669 -5.37358 22309 ft 425 kts 209°
2026-04-20 19:36 54.38012 -5.39605 22311 ft 426 kts 209°
2026-04-20 19:36 54.35356 -5.41843 22292 ft 426 kts 209°
2026-04-20 19:36 54.32691 -5.44080 22296 ft 427 kts 209°
2026-04-20 19:37 54.30023 -5.46315 22294 ft 427 kts 209°
2026-04-20 19:37 54.27351 -5.48553 22297 ft 427 kts 209°
2026-04-20 19:37 54.24682 -5.50790 22299 ft 428 kts 209°
2026-04-20 19:37 54.22004 -5.53033 22302 ft 428 kts 209°
2026-04-20 19:38 54.19360 -5.55244 22298 ft 428 kts 209°
2026-04-20 19:38 54.16685 -5.57476 22303 ft 428 kts 209°
2026-04-20 19:38 54.14007 -5.59708 22309 ft 428 kts 209°
2026-04-20 19:38 54.11328 -5.61935 22280 ft 428 kts 209°
2026-04-20 19:39 54.08648 -5.64163 22283 ft 428 kts 209°
2026-04-20 19:39 54.06004 -5.66355 22318 ft 415 kts 209°
2026-04-20 19:39 54.03430 -5.68485 22314 ft 410 kts 209°
2026-04-20 19:39 54.00869 -5.70605 22312 ft 409 kts 209°
2026-04-20 19:40 53.98289 -5.72628 22072 ft 409 kts 204°
2026-04-20 19:40 53.95537 -5.74037 20889 ft 421 kts 193°
2026-04-20 19:40 53.92580 -5.74556 19787 ft 432 kts 183°
2026-04-20 19:40 53.89576 -5.74680 18924 ft 432 kts 183°
2026-04-20 19:41 53.86544 -5.74854 17687 ft 438 kts 183°
2026-04-20 19:41 53.83507 -5.75073 17009 ft 432 kts 184°
2026-04-20 19:41 53.80537 -5.75299 16473 ft 423 kts 184°
2026-04-20 19:41 53.77623 -5.75524 15917 ft 416 kts 184°
2026-04-20 19:42 53.74756 -5.75741 15367 ft 409 kts 183°
2026-04-20 19:42 53.71931 -5.75966 14798 ft 404 kts 186°
2026-04-20 19:42 53.69209 -5.76921 14228 ft 397 kts 201°
2026-04-20 19:42 53.66782 -5.79054 13596 ft 391 kts 217°
2026-04-20 19:43 53.64827 -5.82161 13021 ft 383 kts 232°
2026-04-20 19:43 53.63450 -5.85961 12412 ft 377 kts 247°
2026-04-20 19:43 53.62700 -5.90153 11821 ft 372 kts 258°
2026-04-20 19:43 53.62149 -5.94389 11242 ft 367 kts 257°
2026-04-20 19:44 53.61607 -5.98489 11117 ft 350 kts 257°
2026-04-20 19:44 53.61084 -6.02393 11029 ft 333 kts 257°
2026-04-20 19:44 53.60576 -6.06124 10886 ft 320 kts 256°
2026-04-20 19:44 53.60087 -6.09711 10742 ft 308 kts 256°
2026-04-20 19:45 53.59611 -6.13194 10380 ft 305 kts 256°
2026-04-20 19:45 53.59142 -6.16628 10176 ft 296 kts 256°
2026-04-20 19:45 53.58689 -6.19944 10013 ft 285 kts 256°
2026-04-20 19:45 53.58246 -6.23169 9565 ft 286 kts 256°
2026-04-20 19:46 53.57791 -6.26498 8745 ft 299 kts 257°
2026-04-20 19:46 53.57320 -6.29952 8167 ft 302 kts 257°
2026-04-20 19:46 53.56952 -6.33308 8013 ft 290 kts 269°
2026-04-20 19:46 53.57311 -6.36546 8017 ft 271 kts 295°
2026-04-20 19:47 53.58355 -6.39032 8015 ft 252 kts 319°
2026-04-20 19:47 53.59759 -6.40576 8021 ft 241 kts 333°
2026-04-20 19:47 53.61250 -6.41933 8021 ft 240 kts 333°
2026-04-20 19:47 53.62704 -6.43258 8021 ft 240 kts 333°
2026-04-20 19:48 53.64147 -6.44680 8018 ft 241 kts 323°
2026-04-20 19:48 53.65339 -6.46661 8019 ft 242 kts 307°
2026-04-20 19:48 53.66221 -6.49081 8019 ft 242 kts 300°
2026-04-20 19:48 53.67068 -6.51535 8019 ft 242 kts 301°
2026-04-20 19:49 53.67921 -6.53990 8018 ft 243 kts 301°
2026-04-20 19:49 53.68774 -6.56441 8019 ft 241 kts 301°
2026-04-20 19:49 53.69301 -6.58090 8018 ft 241 kts 293°
2026-04-20 19:49 53.69809 -6.61760 8019 ft 241 kts 271°
2026-04-20 19:50 53.69788 -6.64596 8024 ft 242 kts 269°
2026-04-20 19:50 53.69768 -6.66491 8023 ft 244 kts 269°
2026-04-20 19:50 53.69744 -6.69348 8012 ft 242 kts 269°
2026-04-20 19:50 53.69721 -6.72192 8013 ft 243 kts 269°
2026-04-20 19:51 53.69597 -6.75037 8013 ft 243 kts 257°
2026-04-20 19:51 53.69042 -6.77712 8016 ft 242 kts 242°
2026-04-20 19:51 53.68161 -6.80125 8016 ft 242 kts 237°
2026-04-20 19:51 53.67264 -6.82529 8017 ft 242 kts 238°
2026-04-20 19:52 53.66372 -6.84931 8018 ft 241 kts 238°
2026-04-20 19:52 53.65481 -6.87338 8014 ft 242 kts 238°
2026-04-20 19:52 53.64441 -6.89549 8013 ft 242 kts 222°
2026-04-20 19:52 53.63078 -6.91205 8015 ft 242 kts 207°
2026-04-20 19:53 53.61580 -6.92486 8009 ft 241 kts 206°
2026-04-20 19:53 53.60038 -6.93583 8011 ft 240 kts 191°
2026-04-20 19:53 53.58391 -6.93616 8011 ft 237 kts 165°
2026-04-20 19:53 53.56900 -6.92506 7999 ft 236 kts 142°
2026-04-20 19:54 53.55800 -6.90482 7630 ft 234 kts 117°
2026-04-20 19:54 53.55306 -6.87922 7319 ft 229 kts 94°
2026-04-20 19:54 53.55175 -6.85269 7030 ft 227 kts 93°
2026-04-20 19:54 53.55040 -6.82638 6745 ft 225 kts 94°
2026-04-20 19:55 53.54901 -6.80021 6439 ft 225 kts 94°
2026-04-20 19:55 53.54759 -6.77397 6058 ft 225 kts 94°
2026-04-20 19:55 53.54614 -6.74774 5684 ft 225 kts 94°
2026-04-20 19:55 53.54473 -6.72157 5364 ft 223 kts 95°
2026-04-20 19:56 53.54112 -6.69661 5052 ft 221 kts 119°
2026-04-20 19:56 53.53055 -6.67842 4721 ft 220 kts 151°
2026-04-20 19:56 53.51580 -6.67233 4369 ft 222 kts 180°
2026-04-20 19:56 53.50038 -6.67453 4001 ft 223 kts 184°
2026-04-20 19:57 53.48493 -6.67446 3505 ft 226 kts 166°
2026-04-20 19:57 53.47056 -6.66398 3076 ft 222 kts 140°
2026-04-20 19:57 53.46108 -6.64657 3269 ft 191 kts 120°
2026-04-20 19:57 53.45614 -6.62779 3306 ft 162 kts 103°
2026-04-20 19:58 53.45462 -6.60992 3297 ft 150 kts 95°
2026-04-20 19:58 53.45374 -6.59287 3332 ft 144 kts 94°
2026-04-20 19:58 53.45287 -6.57614 3325 ft 144 kts 94°
2026-04-20 19:58 53.45201 -6.55955 3323 ft 142 kts 94°
2026-04-20 19:59 53.45115 -6.54300 3302 ft 143 kts 95°
2026-04-20 19:59 53.45028 -6.52640 3182 ft 143 kts 94°
2026-04-20 19:59 53.44941 -6.50981 3019 ft 142 kts 95°
2026-04-20 19:59 53.44854 -6.49333 2848 ft 141 kts 95°
2026-04-20 20:00 53.44767 -6.47691 2635 ft 141 kts 95°
2026-04-20 20:00 53.44681 -6.46058 2454 ft 140 kts 95°
2026-04-20 20:00 53.44595 -6.44429 2255 ft 140 kts 95°
2026-04-20 20:00 53.44509 -6.42811 2070 ft 139 kts 95°
2026-04-20 20:01 53.44423 -6.41194 1874 ft 139 kts 95°
2026-04-20 20:01 53.44336 -6.39579 1690 ft 139 kts 95°
2026-04-20 20:01 53.44250 -6.37968 1490 ft 139 kts 95°
2026-04-20 20:01 53.44164 -6.36362 1302 ft 138 kts 95°
2026-04-20 20:02 53.44077 -6.34756 1094 ft 139 kts 95°
2026-04-20 20:02 53.43990 -6.33145 898 ft 138 kts 95°
2026-04-20 20:02 53.43902 -6.31502 675 ft 144 kts 94°
2026-04-20 20:02 53.43816 -6.29873 468 ft 136 kts 95°
2026-04-20 20:03 53.43734 -6.28312 263 ft 131 kts 94°
2026-04-20 20:03 53.43659 -6.26925 230 ft 99 kts 96°
2026-04-20 20:03 53.43602 -6.25967 230 ft 72 kts 95°
2026-04-20 20:03 53.43570 -6.25442 225 ft 37 kts 100°
2026-04-20 20:04 53.43479 -6.25084 225 ft 26 kts 121°
2026-04-20 20:04 53.43421 -6.24914 226 ft 0 kts 120°
2026-04-20 20:05 53.43401 -6.24858 225 ft 12 kts 120°
2026-04-20 20:05 53.43362 -6.24708 225 ft 16 kts 99°
2026-04-20 20:05 53.43352 -6.24520 225 ft 17 kts 95°
2026-04-20 20:05 53.43270 -6.24407 225 ft 15 kts 182°
2026-04-20 20:06 53.43191 -6.24494 225 ft 13 kts 259°
2026-04-20 20:06 53.43228 -6.24543 225 ft 6 kts 351°
2026-04-20 20:06 53.43268 -6.24538 226 ft 5 kts
2026-04-20 20:06 53.43273 -6.24537 225 ft 0 kts